Weather History for Mosby, MO

Change the Weather History Date:

Wednesday, May 8, 2013

  Actual Average (KMKC) Record (KMKC)
Temperature  
Mean Temperature 62 °F -  
Max Temperature 73 °F 72 °F 86 °F (2011)
Min Temperature 50 °F 52 °F 48 °F (1999)
Degree Days  
Heating Degree Days 4    
Growing Degree Days 12 (Base 50)    
Moisture  
Dew Point 54 °F    
Average Humidity 79    
Maximum Humidity 100    
Minimum Humidity 53    
Precipitation  
Precipitation 0.00 in - - ()
Sea Level Pressure  
Sea Level Pressure 29.97 in    
Wind  
Wind Speed 3 mph (SE)    
Max Wind Speed 15 mph    
Max Gust Speed 20 mph    
Visibility 10 miles    
Events Rain , Thunderstorm    
Averages and records for this station are not official NWS values.
T = Trace of Precipitation, MM = Missing Value Source: NWS Daily Summary

Daily Weather History Graph

Daily Weather History Graph

Search for Another Location

Airport:

Trip Planner

Search our weather history database for the weather conditions in past years. The results will help you decide how hot, cold, wet, or windy it might be!

Date:

Astronomy

May. 08, 2013 Rise Set
Actual Time 6:10 AM CDT 8:17 PM CDT
Civil Twilight 5:40 AM CDT 8:47 PM CDT
Nautical Twilight 5:04 AM CDT 9:23 PM CDT
Astronomical Twilight 4:24 AM CDT 10:03 PM CDT
Moon 5:18 AM CDT (5/8) 7:17 PM CDT (5/8)
Length of Visible Light 15h 06m
Length of Day
14h 07m
Waning Crescent, 2% of the Moon is Illuminated
May 8
Waning Crescent
May 9
New
May 17
First Quarter
May 24
Full
May 31
Last Quarter

Hourly Weather History & Observations

Time (CDT) Temp. Dew Point Humidity Pressure Visibility Wind Dir Wind Speed Gust Speed Precip Events Conditions
12:15 AM 53.6 °F 53.6 °F 100% 29.99 in 10.0 mi Calm Calm - N/A   Clear
12:35 AM 53.6 °F 53.6 °F 100% 29.99 in 10.0 mi Calm Calm - N/A   Clear
12:55 AM 51.8 °F 51.8 °F 100% 29.99 in 10.0 mi Calm Calm - N/A   Unknown
1:15 AM 51.8 °F 51.8 °F 100% 29.99 in 10.0 mi Calm Calm - N/A   Clear
1:35 AM 51.8 °F 51.8 °F 100% 29.99 in 10.0 mi Calm Calm - N/A   Clear
1:55 AM 51.8 °F 51.8 °F 100% 29.99 in 7.0 mi Calm Calm - N/A   Clear
2:15 AM 51.8 °F 51.8 °F 100% 29.99 in 10.0 mi Calm Calm - N/A   Clear
2:35 AM 51.8 °F 51.8 °F 100% 29.99 in 10.0 mi Calm Calm - N/A   Clear
2:55 AM 51.8 °F 51.8 °F 100% 29.98 in 10.0 mi Calm Calm - N/A   Clear
3:15 AM 50.0 °F 50.0 °F 100% 29.99 in 7.0 mi Calm Calm - N/A   Clear
3:35 AM 50.0 °F 50.0 °F 100% 29.99 in 7.0 mi Calm Calm - N/A   Clear
4:15 AM 50.0 °F 50.0 °F 100% 29.99 in 7.0 mi Calm Calm - N/A   Mostly Cloudy
4:35 AM 51.8 °F 51.8 °F 100% 29.99 in 10.0 mi Calm Calm - N/A   Overcast
4:55 AM 51.8 °F 51.8 °F 100% 29.99 in 10.0 mi Calm Calm - N/A   Scattered Clouds
5:15 AM 51.8 °F 51.8 °F 100% 29.99 in 10.0 mi Calm Calm - N/A   Scattered Clouds
5:35 AM 50.0 °F 50.0 °F 100% 29.99 in 7.0 mi Calm Calm - N/A   Mostly Cloudy
5:55 AM 51.8 °F 51.8 °F 100% 29.99 in 10.0 mi Calm Calm - N/A   Overcast
6:15 AM 51.8 °F 51.8 °F 100% 30.00 in 10.0 mi Calm Calm - N/A   Overcast
6:35 AM 51.8 °F 51.8 °F 100% 30.00 in 10.0 mi Calm Calm - N/A   Overcast
6:55 AM 51.8 °F 51.8 °F 100% 30.01 in 10.0 mi Calm Calm - N/A   Overcast
7:15 AM 51.8 °F 51.8 °F 100% 30.01 in 10.0 mi East 3.5 mph - N/A   Overcast
7:35 AM 53.6 °F 53.6 °F 100% 30.01 in 10.0 mi Calm Calm - N/A   Scattered Clouds
7:55 AM 53.6 °F 53.6 °F 100% 30.02 in 10.0 mi Calm Calm - N/A Rain Light Rain
8:15 AM 53.6 °F 53.6 °F 100% 30.02 in 7.0 mi Calm Calm - N/A Rain Light Rain
8:35 AM 55.4 °F 55.4 °F 100% 30.02 in 10.0 mi ESE 3.5 mph - N/A Rain Light Rain
8:55 AM 55.4 °F 55.4 °F 100% 30.02 in 10.0 mi Calm Calm - N/A   Light Drizzle
9:15 AM 55.4 °F 55.4 °F 100% 30.02 in 10.0 mi Calm Calm - N/A Rain Light Rain
9:35 AM 55.4 °F 55.4 °F 100% 30.02 in 10.0 mi ESE 4.6 mph - N/A   Overcast
9:55 AM 57.2 °F 55.4 °F 94% 30.02 in 10.0 mi SE 3.5 mph - N/A   Overcast
10:15 AM 59.0 °F 55.4 °F 88% 30.02 in 10.0 mi SE 3.5 mph - N/A   Overcast
10:35 AM 59.0 °F 55.4 °F 88% 30.02 in 10.0 mi SE 3.5 mph - N/A   Mostly Cloudy
10:55 AM 60.8 °F 55.4 °F 82% 30.02 in 10.0 mi ESE 4.6 mph - N/A   Mostly Cloudy
11:15 AM 62.6 °F 55.4 °F 77% 30.01 in 10.0 mi SE 6.9 mph - N/A   Scattered Clouds
11:35 AM 64.4 °F 59.0 °F 83% 30.01 in 10.0 mi SE 5.8 mph - N/A   Clear
11:55 AM 66.2 °F 57.2 °F 73% 30.01 in 10.0 mi SSE 9.2 mph - N/A   Scattered Clouds
12:15 PM 68.0 °F 57.2 °F 68% 30.00 in 10.0 mi SSE 15.0 mph 18.4 mph N/A   Clear
12:35 PM 69.8 °F 53.6 °F 56% 30.00 in 10.0 mi South 12.7 mph 19.6 mph N/A   Scattered Clouds
12:55 PM 69.8 °F 55.4 °F 60% 29.99 in 10.0 mi SSE 12.7 mph 19.6 mph N/A   Scattered Clouds
1:15 PM 69.8 °F 55.4 °F 60% 29.99 in 10.0 mi SSE 11.5 mph 16.1 mph N/A   Clear
1:35 PM 71.6 °F 55.4 °F 57% 29.99 in 10.0 mi SSE 10.4 mph - N/A   Scattered Clouds
1:55 PM 71.6 °F 55.4 °F 57% 29.98 in 10.0 mi SSE 10.4 mph 16.1 mph N/A   Scattered Clouds
2:15 PM 71.6 °F 55.4 °F 57% 29.98 in 10.0 mi SE 10.4 mph - N/A   Clear
2:35 PM 71.6 °F 55.4 °F 57% 29.98 in 10.0 mi SE 10.4 mph - N/A   Clear
2:55 PM 71.6 °F 55.4 °F 57% 29.98 in 10.0 mi South 9.2 mph - N/A   Scattered Clouds
3:15 PM 71.6 °F 55.4 °F 57% 29.97 in 10.0 mi SE 10.4 mph - N/A   Scattered Clouds
3:35 PM 71.6 °F 55.4 °F 57% 29.97 in 10.0 mi SSE 6.9 mph 10.4 mph N/A   Scattered Clouds
3:55 PM 73.4 °F 55.4 °F 53% 29.96 in 10.0 mi South 10.4 mph - N/A   Scattered Clouds
4:15 PM 71.6 °F 53.6 °F 53% 29.95 in 10.0 mi South 10.4 mph - N/A   Scattered Clouds
4:35 PM 73.4 °F 55.4 °F 53% 29.94 in 10.0 mi South 10.4 mph - N/A   Clear
4:55 PM 71.6 °F 55.4 °F 57% 29.93 in 10.0 mi SSE 11.5 mph 17.3 mph N/A   Clear
5:15 PM 71.6 °F 55.4 °F 57% 29.93 in 10.0 mi SE 9.2 mph - N/A   Clear
5:35 PM 71.6 °F 55.4 °F 57% 29.93 in 10.0 mi SSE 9.2 mph - N/A   Clear
5:55 PM 73.4 °F 57.2 °F 57% 29.92 in 10.0 mi SE 6.9 mph - N/A   Clear
6:15 PM 73.4 °F 57.2 °F 57% 29.92 in 10.0 mi SE 8.1 mph - N/A   Clear
6:35 PM 71.6 °F 57.2 °F 60% 29.92 in 10.0 mi SE 8.1 mph - N/A   Clear
6:55 PM 73.4 °F 55.4 °F 53% 29.92 in 10.0 mi SSE 6.9 mph - N/A   Clear
7:15 PM 71.6 °F 55.4 °F 57% 29.91 in 10.0 mi SSE 6.9 mph - N/A   Clear
7:35 PM 71.6 °F 55.4 °F 57% 29.91 in 10.0 mi SSE 4.6 mph - N/A   Scattered Clouds
7:55 PM 71.6 °F 53.6 °F 53% 29.91 in 10.0 mi SSE 10.4 mph - N/A   Mostly Cloudy
8:15 PM 69.8 °F 53.6 °F 56% 29.91 in 10.0 mi SSE 5.8 mph - N/A   Overcast
8:35 PM 69.8 °F 53.6 °F 56% 29.90 in 10.0 mi SE 6.9 mph - N/A   Overcast
8:55 PM 69.8 °F 53.6 °F 56% 29.91 in 10.0 mi SSE 4.6 mph - N/A   Mostly Cloudy
9:15 PM 68.0 °F 55.4 °F 64% 29.91 in 10.0 mi ESE 4.6 mph - N/A   Mostly Cloudy
9:55 PM 68.0 °F 55.4 °F 64% 29.92 in 10.0 mi East 4.6 mph - N/A   Overcast
10:15 PM 68.0 °F 55.4 °F 64% 29.91 in 10.0 mi East 5.8 mph - N/A Rain Light Rain
10:35 PM 66.2 °F 55.4 °F 68% 29.91 in 10.0 mi Calm Calm - N/A Rain , Thunderstorm Light Thunderstorms and Rain
11:55 PM 62.6 °F 59.0 °F 88% 29.94 in 10.0 mi West 9.2 mph - N/A Rain , Thunderstorm Light Thunderstorms and Rain